Miscellaneous Local Product
Issued by NWS Hastings, NE

Home | Current Version | Previous Version | Graphics & Text | Print | Product List | Glossary On
Versions: 1 2 3 4 5 6 7 8 9 10 11 12 13 14 15 16 17 18 19 20 21 22 23 24 25 26 27 28 29 30 31 32 33 34 35 36 37 38 39 40 41 42 43 44 45 46 47 48 49 50
000
AXUS43 KGID 030102
MISGRI

GID CWA HOURLY WEATHER ROUNDUP
NATIONAL WEATHER SERVICE HASTINGS NE
800 PM CDT THU JUL 02 2015

NOTE: "FAIR" INDICATES FEW OR NO CLOUDS BELOW 12,000 FEET WITH NO
SIGNIFICANT WEATHER AND/OR OBSTRUCTIONS TO VISIBILITY.

...SOUTH CENTRAL NEBRASKA...

CITY           SKY/WX    TMP DP  RH WIND       PRES   REMARKS
GRAND ISLAND   SUNNY     73  66  78 NE13      29.95R
HASTINGS       MOSUNNY   72  65  78 E10       29.94R
KEARNEY        MOSUNNY   77  61  57 N16       29.95R
ORD            MOSUNNY   74  64  71 NE10      29.95R
YORK           PTSUNNY   72  70  94 S7        29.90F
AURORA         MOSUNNY   71  69  92 NW5       29.92S
LEXINGTON      SUNNY     80  58  47 N10       29.97S
HOLDREGE       SUNNY     80  57  44 N7        29.95R
HEBRON         LGT RAIN  74  68  81 SE7       29.91R

...NEBRASKA PANHANDLE...

CITY           SKY/WX    TMP DP  RH WIND       PRES   REMARKS
CHADRON        MOSUNNY   77  60  55 NE10      30.06S
ALLIANCE       MOSUNNY   76  60  57 N9        30.07S
SCOTTSBLUFF    SUNNY     81  54  39 N13       30.08S
SIDNEY         SUNNY     79  55  43 NE7       30.11S

...WESTERN AND NORTH CENTRAL NEBRASKA...

CITY           SKY/WX    TMP DP  RH WIND       PRES   REMARKS
VALENTINE      MOSUNNY   76  60  57 NE10      30.00S
AINSWORTH      MOSUNNY   75  59  56 N12       30.01R
ONEILL         PTSUNNY   70  65  85 E9        29.99R
BROKEN BOW     SUNNY     78  61  55 N9        29.97R
IMPERIAL       SUNNY     81  59  47 N8        30.04R
NORTH PLATTE   SUNNY     79  57  46 N9        30.01R
MCCOOK         SUNNY     82  59  45 N14       29.98R

...EASTERN NEBRASKA...

CITY           SKY/WX    TMP DP  RH WIND       PRES   REMARKS
NORFOLK        CLOUDY    66  63  90 E6        29.97S FOG
SO SIOUX CITY  PTSUNNY   67  56  67 E6        29.97S
TEKAMAH        CLOUDY    70  62  76 E8        29.95S
COLUMBUS       CLOUDY    66  61  82 NE15      29.93F
ALBION         CLOUDY    67  62  83 NE12      29.97R
OMAHA EPPLEY   CLOUDY    70  62  76 E5        29.94S
OFFUTT AFB     MOCLDY    70  64  80 E6        29.93S
MILLARD        MOCLDY    70  63  77 E3        29.94S
LINCOLN        CLOUDY    71  65  81 E10       29.92S
NEBRASKA CITY  CLOUDY    68  66  94 E6        29.94S FOG
BEATRICE       CLOUDY    72  67  85 E6        29.91S
FALLS CITY     CLOUDY    70  67  90 E7        29.90F

...NORTHERN KANSAS...

CITY           SKY/WX    TMP DP  RH WIND       PRES   REMARKS
GOODLAND       SUNNY     82  54  37 N13       30.04S
HILL CITY      LGT RAIN  86  61  42 N14       29.94R
NORTON         CLEAR     81  55  41 N9G16     29.95S
PHILLIPSBURG   SUNNY     88  59  37 N10       29.92S
SMITH CENTER   SUNNY     81  61  50 NW10      29.91S
HAYS           MOSUNNY   84  63  48 W5        29.91S
RUSSELL        SUNNY     83  64  52 W5        29.89F
CONCORDIA      PTCLDY    72  65  78 NE12G18   29.90R
SALINA         CLEAR     83  67  58 W7        29.87F
TOPEKA         CLOUDY    73  69  87 NE8       29.89S



USA.gov is the U.S. government's official web portal to all federal, state and local government web resources and services.